| time (UTC) | temp F | wind direction | speed MPH | gust MPH | rain 1hr in | rain 24hr in | rain mn in | humidity % | barometer mb |
| 20260508163105 | 62 | 209 | 0.0 | 2.0 | 0.00 | 0.00 | 0.00 | 75 | 1009.7 |
| 20260508161621 | 62 | 218 | 2.0 | 7.0 | 0.00 | 0.00 | 0.00 | 74 | 1010.0 |
| 20260508160038 | 61 | 197 | 2.0 | 8.0 | 0.00 | 0.00 | 0.00 | 75 | 1009.8 |
| 20260508154629 | 61 | 203 | 3.0 | 9.0 | 0.00 | 0.00 | 0.00 | 74 | 1009.8 |
| 20260508153049 | 60 | 209 | 2.0 | 5.0 | 0.00 | 0.00 | 0.00 | 74 | 1009.7 |
| 20260508151503 | 60 | 11 | 2.0 | 6.0 | 0.00 | 0.00 | 0.00 | 75 | 1009.8 |
| 20260508150053 | 59 | 216 | 0.0 | 6.0 | 0.00 | 0.00 | 0.00 | 74 | 1010.0 |
| 20260508144507 | 59 | 226 | 1.0 | 8.0 | 0.00 | 0.00 | 0.00 | 74 | 1010.0 |
| 20260508143055 | 59 | 11 | 0.0 | 5.0 | 0.00 | 0.00 | 0.00 | 75 | 1010.1 |
| 20260508141517 | 58 | 197 | 2.0 | 8.0 | 0.00 | 0.00 | 0.00 | 74 | 1009.9 |
| 20260508140105 | 58 | 11 | 4.0 | 12.0 | 0.00 | 0.00 | 0.00 | 73 | 1009.8 |
| 20260508134525 | 58 | 206 | 4.0 | 9.0 | 0.00 | 0.00 | 0.00 | 75 | 1009.7 |
| 20260508133112 | 57 | 193 | 2.0 | 9.0 | 0.00 | 0.00 | 0.00 | 74 | 1010.1 |
| 20260508131527 | 57 | 11 | 1.0 | 5.0 | 0.00 | 0.00 | 0.00 | 74 | 1010.0 |
| 20260508130119 | 57 | 200 | 2.0 | 9.0 | 0.00 | 0.00 | 0.00 | 74 | 1009.9 |
| 20260508124531 | 57 | 11 | 1.0 | 6.0 | 0.00 | 0.00 | 0.00 | 74 | 1009.9 |
| 20260508123125 | 57 | 211 | 1.0 | 5.0 | 0.00 | 0.00 | 0.00 | 74 | 1009.9 |
| 20260508121541 | 56 | 11 | 2.0 | 9.0 | 0.00 | 0.00 | 0.00 | 73 | 1009.7 |
| 20260508120129 | 57 | 11 | 3.0 | 9.0 | 0.00 | 0.00 | 0.00 | 72 | 1009.7 |
| 20260508114617 | 57 | 192 | 1.0 | 8.0 | 0.00 | 0.00 | 0.00 | 71 | 1009.5 |
| 20260508113029 | 57 | 203 | 4.0 | 15.0 | 0.00 | 0.00 | 0.00 | 71 | 1009.4 |
| 20260508111623 | 57 | 11 | 4.0 | 14.0 | 0.00 | 0.00 | 0.00 | 70 | 1009.1 |
| 20260508110047 | 57 | 11 | 4.0 | 17.0 | 0.00 | 0.00 | 0.00 | 70 | 1009.1 |
| 20260508104622 | 57 | 185 | 3.0 | 11.0 | 0.00 | 0.00 | 0.00 | 70 | 1009.5 |
| 20260508103032 | 57 | 11 | 2.0 | 10.0 | 0.00 | 0.00 | 0.00 | 70 | 1009.4 |
| 20260508101617 | 57 | 11 | 3.0 | 9.0 | 0.00 | 0.00 | 0.00 | 70 | 1009.2 |
| 20260508100036 | 57 | 199 | 2.0 | 13.0 | 0.00 | 0.00 | 0.00 | 69 | 1009.2 |
| 20260508094514 | 57 | 205 | 2.0 | 13.0 | 0.00 | 0.00 | 0.00 | 69 | 1009.2 |
| 20260508093107 | 57 | 201 | 5.0 | 11.0 | 0.00 | 0.00 | 0.00 | 69 | 1009.2 |
| 20260508091523 | 57 | 191 | 4.0 | 12.0 | 0.00 | 0.00 | 0.00 | 69 | 1009.1 |
| 20260508090114 | 57 | 11 | 2.0 | 9.0 | 0.00 | 0.00 | 0.00 | 69 | 1009.3 |
| 20260508084531 | 57 | 11 | 4.0 | 10.0 | 0.00 | 0.00 | 0.00 | 69 | 1009.2 |
| 20260508083122 | 57 | 205 | 2.0 | 10.0 | 0.00 | 0.00 | 0.00 | 68 | 1009.3 |
| 20260508081548 | 57 | 210 | 3.0 | 12.0 | 0.00 | 0.00 | 0.00 | 68 | 1009.5 |
| 20260508080007 | 57 | 218 | 3.0 | 11.0 | 0.00 | 0.00 | 0.00 | 69 | 1009.7 |
| 20260508074555 | 57 | 203 | 2.0 | 10.0 | 0.00 | 0.00 | 0.00 | 70 | 1009.8 |
| 20260508073015 | 57 | 218 | 2.0 | 14.0 | 0.00 | 0.00 | 0.00 | 70 | 1010.2 |
| 20260508071559 | 57 | 11 | 3.0 | 11.0 | 0.00 | 0.00 | 0.00 | 70 | 1010.3 |
| 20260508070021 | 57 | 11 | 4.0 | 15.0 | 0.00 | 0.00 | 0.00 | 70 | 1010.4 |
| 20260508064603 | 56 | 203 | 3.0 | 11.0 | 0.00 | 0.00 | 0.00 | 70 | 1010.5 |
| 20260508063024 | 57 | 201 | 3.0 | 9.0 | 0.00 | 0.00 | 0.00 | 70 | 1010.8 |
| 20260508061623 | 57 | 216 | 3.0 | 8.0 | 0.00 | 0.00 | 0.00 | 69 | 1010.9 |
| 20260508060045 | 58 | 11 | 4.0 | 13.0 | 0.00 | 0.00 | 0.00 | 68 | 1011.0 |
| 20260508054641 | 58 | 11 | 4.0 | 10.0 | 0.00 | 0.00 | 0.00 | 67 | 1010.9 |
| 20260508053047 | 59 | 11 | 4.0 | 13.0 | 0.00 | 0.00 | 0.00 | 66 | 1010.8 |
| 20260508051630 | 59 | 214 | 5.0 | 14.0 | 0.00 | 0.00 | 0.00 | 65 | 1010.9 |
| 20260508050054 | 59 | 201 | 5.0 | 15.0 | 0.00 | 0.00 | 0.00 | 64 | 1011.0 |
| 20260508044555 | 60 | 205 | 5.0 | 15.0 | 0.00 | 0.00 | 0.00 | 63 | 1011.1 |
| 20260508043132 | 60 | 11 | 5.0 | 13.0 | 0.00 | 0.00 | 0.00 | 63 | 1011.1 |
| 20260508041553 | 60 | 196 | 4.0 | 15.0 | 0.00 | 0.00 | 0.00 | 63 | 1011.1 |
| 20260508040006 | 61 | 11 | 3.0 | 10.0 | 0.00 | 0.00 | 0.00 | 62 | 1011.1 |
| 20260508034555 | 61 | 11 | 3.0 | 11.0 | 0.00 | 0.00 | 0.00 | 61 | 1011.1 |
| 20260508033005 | 62 | 11 | 3.0 | 12.0 | 0.00 | 0.00 | 0.00 | 60 | 1011.0 |
| 20260508031557 | 62 | 189 | 6.0 | 14.0 | 0.00 | 0.00 | 0.00 | 59 | 1011.1 |
| 20260508030008 | 63 | 192 | 5.0 | 14.0 | 0.00 | 0.00 | 0.00 | 58 | 1010.9 |
| 20260508024607 | 63 | 11 | 4.0 | 14.0 | 0.00 | 0.00 | 0.00 | 58 | 1010.8 |
| 20260508023023 | 63 | 11 | 5.0 | 16.0 | 0.00 | 0.00 | 0.00 | 58 | 1010.7 |
| 20260508021619 | 63 | 11 | 3.0 | 12.0 | 0.00 | 0.00 | 0.00 | 59 | 1010.5 |
| 20260508020018 | 63 | 11 | 3.0 | 11.0 | 0.00 | 0.00 | 0.00 | 57 | 1010.4 |
| 20260508014619 | 64 | 11 | 1.0 | 10.0 | 0.00 | 0.00 | 0.00 | 57 | 1010.3 |
| 20260508013034 | 64 | 192 | 3.0 | 8.0 | 0.00 | 0.00 | 0.00 | 56 | 1010.2 |
| 20260508011627 | 65 | 11 | 3.0 | 17.0 | 0.00 | 0.00 | 0.00 | 54 | 1010.2 |
| 20260508010042 | 65 | 11 | 2.0 | 8.0 | 0.00 | 0.00 | 0.00 | 54 | 1010.0 |
| 20260508004625 | 66 | 11 | 2.0 | 8.0 | 0.00 | 0.00 | 0.00 | 53 | 1010.1 |
| 20260508003033 | 67 | 11 | 3.0 | 9.0 | 0.00 | 0.00 | 0.00 | 51 | 1010.1 |
| 20260508001625 | 67 | 11 | 2.0 | 11.0 | 0.00 | 0.00 | 0.00 | 51 | 1010.1 |
| 20260508000044 | 68 | 210 | 2.0 | 11.0 | 0.00 | 0.00 | 0.00 | 50 | 1010.3 |
| 20260507234519 | 69 | 182 | 4.0 | 13.0 | 0.00 | 0.00 | 0.00 | 49 | 1010.5 |
| 20260507233118 | 69 | 11 | 6.0 | 17.0 | 0.00 | 0.00 | 0.00 | 48 | 1010.7 |
| 20260507231527 | 69 | 217 | 4.0 | 14.0 | 0.00 | 0.00 | 0.00 | 48 | 1010.8 |
| 20260507230109 | 69 | 250 | 7.0 | 18.0 | 0.00 | 0.00 | 0.00 | 47 | 1011.0 |
| 20260507224533 | 69 | 11 | 4.0 | 16.0 | 0.00 | 0.00 | 0.00 | 49 | 1011.0 |
| 20260507223106 | 69 | 245 | 5.0 | 17.0 | 0.00 | 0.00 | 0.00 | 47 | 1011.1 |
| 20260507221535 | 69 | 225 | 6.0 | 14.0 | 0.00 | 0.00 | 0.00 | 49 | 1011.2 |
| 20260507220110 | 69 | 255 | 5.0 | 14.0 | 0.00 | 0.00 | 0.00 | 50 | 1011.3 |
| 20260507214521 | 69 | 297 | 4.0 | 21.0 | 0.00 | 0.00 | 0.00 | 49 | 1011.4 |
| 20260507213109 | 70 | 248 | 6.0 | 20.0 | 0.00 | 0.00 | 0.00 | 48 | 1011.5 |
| 20260507211518 | 71 | 201 | 4.0 | 17.0 | 0.00 | 0.00 | 0.00 | 46 | 1011.8 |
| 20260507210121 | 70 | 11 | 7.0 | 17.0 | 0.00 | 0.00 | 0.00 | 50 | 1012.0 |
| 20260507204523 | 70 | 11 | 4.0 | 17.0 | 0.00 | 0.00 | 0.00 | 49 | 1012.3 |
| 20260507203114 | 70 | 11 | 6.0 | 17.0 | 0.00 | 0.00 | 0.00 | 49 | 1012.6 |
| 20260507201534 | 69 | 11 | 7.0 | 18.0 | 0.00 | 0.00 | 0.00 | 53 | 1013.0 |
| 20260507200118 | 70 | 208 | 5.0 | 22.0 | 0.00 | 0.00 | 0.00 | 51 | 1013.5 |
| 20260507194532 | 70 | 295 | 5.0 | 18.0 | 0.00 | 0.00 | 0.00 | 50 | 1013.5 |
| 20260507193134 | 69 | 11 | 5.0 | 19.0 | 0.00 | 0.00 | 0.00 | 56 | 1013.7 |
| 20260507191545 | 68 | 208 | 7.0 | 20.0 | 0.00 | 0.00 | 0.00 | 55 | 1013.7 |
| 20260507190130 | 67 | 11 | 5.0 | 27.0 | 0.00 | 0.00 | 0.00 | 56 | 1014.0 |
| 20260507184543 | 66 | 11 | 6.0 | 20.0 | 0.00 | 0.00 | 0.00 | 57 | 1014.2 |
| 20260507183004 | 66 | 11 | 7.0 | 19.0 | 0.00 | 0.00 | 0.00 | 55 | 1014.4 |
| 20260507181553 | 65 | 280 | 7.0 | 21.0 | 0.00 | 0.00 | 0.00 | 58 | 1014.6 |
| 20260507180008 | 66 | 270 | 4.0 | 20.0 | 0.00 | 0.00 | 0.00 | 57 | 1014.9 |
| 20260507174610 | 66 | 11 | 6.0 | 18.0 | 0.00 | 0.00 | 0.00 | 56 | 1015.1 |
| 20260507173019 | 65 | 11 | 11.0 | 23.0 | 0.00 | 0.00 | 0.00 | 56 | 1015.5 |
| 20260507171609 | 66 | 11 | 8.0 | 19.0 | 0.00 | 0.00 | 0.00 | 60 | 1015.5 |
| 20260507170011 | 65 | 11 | 9.0 | 21.0 | 0.00 | 0.00 | 0.00 | 57 | 1015.7 |